STARLINK-1044 (44749 NORAD) Tracking and Keplerian Element Data

This shows tracking and keplerian element data for the satellite.

Feedback or suggestion? Click here.




ElementValue
Catalog44749
NameSTARLINK-1044
Epoch Orbit1141
Epoch Day23.25001157
Epoch Year2020
RAAN172.0234
Inclination53.0085
Eccentricity0.0001302
Argument of Perigee78.2899
Mean Anonmoly20.4549
Mean Motion15.30550863
Decay Rate-0.00046558
L11 44749U 19074AN 20023.25001157 -.00046558 00000-0 -15524-2 0 9996
L22 44749 53.0085 172.0234 0001302 78.2899 20.4549 15.30550863 11416

Live tracking and technical data element details for STARLINK-1044 (NORAD 44749). STARLINK-1044 can be tracked NOW for your location showing map with azimuth and elevation plus other details from your city location.

Track the satellite on the map from your city or location and see movement details for azimuth, elevation, latitude, longitude, range, height, and movement on the map or in text.







IsCatalogInMostPopularTable: catalog: 44749, numindb: 8
Update: records affected: 1



GetName: 44749 STARLINK-1044

Hit Count: updated at: Fri, 24 Jan 2020 13:08:22 GMT